Date,TemperatureHighF,TemperatureAvgF,TemperatureLowF,DewpointHighF,DewpointAvgF,DewpointLowF,HumidityHigh,HumidityAvg,HumidityLow,PressureMaxIn,PressureMinIn,WindSpeedMaxMPH,WindSpeedAvgMPH,GustSpeedMaxMPH,PrecipitationSumIn
2011-3-1,62,44,28,31,23,17,67,46,26,30.11,30.01,13,1,14,0.00
2011-3-2,59,45,33,30,23,19,57,43,27,30.07,29.97,12,1,12,0.00
2011-3-3,63,47,34,36,28,21,62,48,30,30.00,29.85,8,1,13,0.00
2011-3-4,56,41,30,33,25,15,74,53,30,30.19,29.93,9,1,9,0.00
2011-3-5,58,40,26,24,16,13,60,40,20,30.20,29.99,9,1,9,0.00
2011-3-6,47,40,32,32,20,13,75,47,36,29.99,29.71,10,2,13,0.00
2011-3-7,48,40,37,39,34,30,83,77,63,29.71,29.47,13,3,14,0.10
2011-3-8,54,40,32,36,29,21,84,66,44,30.08,29.56,9,2,10,0.10
2011-3-9,62,42,28,33,26,19,72,55,33,30.24,30.08,7,1,9,0.02
2011-3-10,63,46,32,37,27,21,63,49,34,30.24,30.00,12,2,12,0.00
2011-3-11,72,50,35,38,28,22,64,44,23,30.01,29.87,8,2,10,0.00
2011-3-12,70,49,33,34,25,20,61,40,20,29.95,29.85,10,1,10,0.00
2011-3-13,69,51,42,34,28,20,58,43,24,30.14,29.91,7,1,9,0.00
2011-3-14,71,50,38,33,25,20,50,38,22,30.14,29.95,11,2,11,0.00
2011-3-15,72,51,36,36,27,21,58,42,23,30.05,29.94,8,2,10,0.00
2011-3-16,74,54,40,38,28,24,54,39,21,29.99,29.83,9,2,10,0.00
2011-3-17,65,56,47,32,28,24,52,34,26,30.05,29.86,10,2,11,0.00
2011-3-18,67,51,37,37,30,22,68,47,24,30.09,29.91,11,1,14,0.00
2011-3-19,66,55,43,26,17,1,48,25,11,29.92,29.77,9,2,12,0.00
2011-3-20,65,53,42,15,7,1,26,16,10,29.96,29.80,10,3,11,0.00
2011-3-21,62,52,39,34,18,4,74,31,14,29.80,29.67,12,3,14,0.10
2011-3-22,54,40,32,34,28,19,80,62,33,29.92,29.75,7,2,11,0.12
2011-3-23,68,43,29,31,22,16,66,47,20,30.00,29.75,12,2,12,0.02
2011-3-24,60,49,40,29,18,13,48,30,20,29.81,29.71,12,4,17,0.00
2011-3-25,59,45,34,26,19,13,45,36,26,29.81,29.66,12,3,14,0.00
2011-3-26,56,45,30,34,27,17,75,51,33,29.84,29.68,6,1,7,0.06
2011-3-27,68,48,38,40,33,24,82,59,26,29.82,29.72,9,2,12,0.06
2011-3-28,71,50,36,37,29,22,68,46,19,29.86,29.71,9,2,11,0.00
2011-3-29,63,46,32,23,16,9,43,31,17,30.03,29.87,11,2,12,0.00
2011-3-30,70,48,32,33,23,10,49,37,24,30.01,29.92,8,1,8,0.00
2011-3-31,81,55,43,40,33,22,61,46,18,30.01,29.89,9,2,12,0.00